Delta Virtual Airport Information Service

Oakland International Airport

ICAO: KOAK Country: United States
Latitude: 37.7213 Longitude: -122.22
Latest Arrival : FDX1835 (2) (KLAX-KOAK) Latest Departure : DAC222 (KOAK-KSFO)


WX CaptureLIVE
Data provided by noaa.gov | Fetched at 22:05:03

METAR : KOAK 240253Z 32006KT 10SM CLR 17/12 A2999 RMK AO2 SLP156 T01670117 51010

TAF : KOAK 232331Z 2400/2506 29010KT P6SM SKC FM240400 31005KT P6SM SKC FM240900 VRB04KT P6SM BKN012 FM241730 VRB04KT P6SM SCT015 FM242000 32012KT P6SM FEW020 FM250400 31006KT P6SM SCT012


Runway Data for KOAK
Data provided by openaviationdata.com

Runway ID Mag Var Hdg Length Elevation Surface ILS Freq ILS Id ILS Slope
09L 16 96° 5447 ft 6 ft Asphalt -- -- --
09R 16 96° 6206 ft 6 ft Asphalt -- -- --
11 16 114° 9998 ft 6 ft Asphalt 111.9 IAAZ 2
15 16 148° 3369 ft 6 ft Asphalt -- -- --
27L 16 276° 6206 ft 6 ft Asphalt -- -- --
27R 16 276° 5447 ft 6 ft Asphalt 109.9 IOAK 2
29 16 294° 9998 ft 6 ft Asphalt 108.7 IINB 3
33 16 328° 3369 ft 6 ft Asphalt -- -- --

Oakland International Airport, United States
Use only for reference purposes



Not for navigational purposes.